Terug naar catalogus

COSMOS 970 DEB

ActiefLEO
NORAD 12942·DEBRIS·🇷🇺 Russia

Gelanceerd Dec 21, 1977 vanaf Baikonur Cosmodrome

Loading…

Volgende Passages (komende 24 uur)

TLE

VersSource: Space-Track

Epoch: Sep 14, 2026, 03:22 UTC

1 12942U 77121AZ  26257.14071449  .00000093  00000-0  30507-3 0  9998
2 12942  65.8310 312.9971 0104750 170.0609 208.6548 13.37901360205536

Volg COSMOS 970 DEB in realtime met AllMySat

Download on the App Store